Location: Unspecified
(47.2333°N, 39.7000°E)
Time: 23:35:19
(UTC+00:00)

ISS - Pass Details

Date: 13 July 2022
Orbit: 412 x 420 km, 51.6° (Epoch: 17 August)

Event Time Altitude Azimuth Distance (km) Brightness Sun altitude
Rises 21:17:59 0° 280° (W) 2,355 0.2 -21.0°
Reaches altitude 10° 21:20:10 10° 289° (WNW) 1,494 -0.7 -21.0°
Maximum altitude 21:23:19 37° 358° (N) 672 -2.2 -21.0°
Drops below altitude 10° 21:26:28 10° 68° (ENE) 1,500 -0.7 -21.0°
Sets 21:28:41 0° 77° (ENE) 2,365 0.2 -21.0°
